Location: Huesca
(42.1318°N, 0.4078°W)
Time: 12:22:54
(UTC+01:00)

O/OREOS (USA 219) - Pass Details

Date: 18 November 2024
Orbit: 590 x 609 km, 72.0° (Epoch: 06 December)

Event Time Altitude Azimuth Distance (km) Brightness Sun altitude
Rises 18:57:34 0° 227° (SW) 2,819 ? -14.8°
Reaches altitude 10° 19:00:01 10° 238° (WSW) 1,920 ? -15.3°
Maximum altitude 19:03:47 30° 300° (WNW) 1,078 ? -16.0°
Drops below altitude 10° 19:07:36 10° 2° (N) 1,926 ? -16.6°
Enters shadow 19:09:12 - 11° (N) 2,510 ? -16.9°
